Lubbock, TX

8:55 PM CDT on April 23, 2018 (GMT -0500)
Lubbock International

Weather History for KLBB - October, 2013

Change the Weather History Date:

Sunday, October 27, 2013

  Actual Average Record
Temperature  
Mean Temperature 53 °F 58 °F  
Max Temperature 71 °F 72 °F 87 °F (1922)
Min Temperature 35 °F 44 °F 26 °F (1997)
Degree Days  
Heating Degree Days 12 8  
Month to date heating degree days 152 125  
Since 1 July heating degree days 156 148  
Cooling Degree Days 0 1  
Month to date cooling degree days 68 52  
Year to date cooling degree days 2112 1801  
Growing Degree Days 3 (Base 50)    
Moisture  
Dew Point 34 °F    
Average Humidity 55    
Maximum Humidity 89    
Minimum Humidity 20    
Precipitation  
Precipitation 0.00 in 0.05 in 0.80 in (2011)
Month to date precipitation 1.11 1.74  
Year to date precipitation 11.43 17.32  
Snow  
Snow 0.00 in 0.00 in T in (2011)
Month to date snowfall 0.0 0.0  
Since 1 July snowfall 0.0 0.0  
Since 1 September snowfall 0.0 0.0  
Snow Depth 0.00 in    
Sea Level Pressure  
Sea Level Pressure 30.05 in    
Wind  
Wind Speed 8 mph (WSW)    
Max Wind Speed 15 mph    
Max Gust Speed 17 mph    
Visibility 10 miles    
Events      
T = Trace of Precipitation, MM = Missing Value Source: NWS Daily Summary

Daily Weather History Graph

Daily Weather History Graph

Search for Another Location

Airport or City:

Astronomy

Oct. 27, 2013 Rise Set
Actual Time 8:02 AM CDT 6:59 PM CDT
Civil Twilight 7:36 AM CDT 7:25 PM CDT
Nautical Twilight 7:07 AM CDT 7:54 PM CDT
Astronomical Twilight 6:38 AM CDT 8:23 PM CDT
Moon 1:20 AM CDT (10/27) 2:52 PM CDT (10/27)
Length of Visible Light 11h 48m
Length of Day
10h 57m
Last Quarter, 43% of the Moon is Illuminated
Oct 27
Last Quarter
Nov 3
New
Nov 9
First Quarter
Nov 17
Full
Nov 25
Last Quarter

Hourly Weather History & Observations

Time (CDT) Temp. Windchill Dew Point Humidity Pressure Visibility Wind Dir Wind Speed Gust Speed Precip Events Conditions
12:53 AM 46.0 °F 43.9 °F 37.0 °F 71% 30.16 in 10.0 mi West 4.6 mph - N/A   Clear
1:53 AM 44.1 °F 40.1 °F 36.0 °F 73% 30.14 in 10.0 mi NNW 6.9 mph - N/A   Clear
2:53 AM 42.1 °F 37.7 °F 35.1 °F 76% 30.13 in 10.0 mi NNW 6.9 mph - N/A   Clear
3:53 AM 39.9 °F 35.8 °F 34.0 °F 79% 30.13 in 10.0 mi NNW 5.8 mph - N/A   Clear
4:53 AM 39.9 °F 35.8 °F 34.0 °F 79% 30.12 in 10.0 mi North 5.8 mph - N/A   Clear
5:53 AM 37.9 °F 32.7 °F 33.1 °F 83% 30.12 in 10.0 mi NNW 6.9 mph - N/A   Clear
6:53 AM 36.0 °F 33.3 °F 32.0 °F 86% 30.14 in 10.0 mi WNW 3.5 mph - N/A   Clear
7:53 AM 35.1 °F 31.0 °F 30.9 °F 85% 30.14 in 10.0 mi West 4.6 mph - N/A   Partly Cloudy
8:53 AM 39.0 °F 35.7 °F 33.1 °F 79% 30.15 in 10.0 mi West 4.6 mph - N/A   Clear
9:53 AM 48.0 °F - 34.0 °F 58% 30.14 in 10.0 mi NW 3.5 mph - N/A   Partly Cloudy
10:53 AM 55.9 °F - 34.0 °F 44% 30.14 in 10.0 mi West 4.6 mph - N/A   Partly Cloudy
11:53 AM 60.1 °F - 32.0 °F 35% 30.11 in 10.0 mi SW 4.6 mph - N/A   Partly Cloudy
12:53 PM 64.0 °F - 33.1 °F 31% 30.08 in 10.0 mi SSW 6.9 mph - N/A   Partly Cloudy
1:53 PM 66.9 °F - 30.0 °F 25% 30.03 in 10.0 mi SSW 9.2 mph - N/A   Partly Cloudy
2:53 PM 69.1 °F - 28.9 °F 22% 29.99 in 10.0 mi SW 8.1 mph - N/A   Partly Cloudy
3:53 PM 71.1 °F - 28.0 °F 20% 29.96 in 10.0 mi SW 9.2 mph - N/A   Scattered Clouds
4:53 PM 71.1 °F - 30.0 °F 22% 29.94 in 10.0 mi South 8.1 mph - N/A   Scattered Clouds
5:53 PM 70.0 °F - 30.0 °F 23% 29.94 in 10.0 mi South 12.7 mph - N/A   Scattered Clouds
6:53 PM 64.9 °F - 30.9 °F 28% 29.94 in 10.0 mi South 11.5 mph - N/A   Scattered Clouds
7:53 PM 63.0 °F - 35.1 °F 35% 29.95 in 10.0 mi South 10.4 mph - N/A   Partly Cloudy
8:53 PM 60.1 °F - 39.9 °F 47% 29.95 in 10.0 mi South 11.5 mph - N/A   Partly Cloudy
9:53 PM 57.9 °F - 42.1 °F 56% 29.94 in 10.0 mi South 12.7 mph - N/A   Partly Cloudy
10:53 PM 57.0 °F - 43.0 °F 59% 29.93 in 10.0 mi South 11.5 mph - N/A   Partly Cloudy
11:53 PM 55.9 °F - 43.0 °F 62% 29.92 in 10.0 mi South 9.2 mph - N/A   Clear